Location: Sobotiste
(48.7170°N, 17.4000°E)
Time: 22:47:31
(UTC+02:00)

SEEDS - Pass Details

Date: 16 March 2026
Orbit: 470 x 477 km, 97.8° (Epoch: 21 April)

Event Time Altitude Azimuth Distance (km) Brightness Sun altitude
Rises 04:47:39 0° 21° (NNE) 2,559 ? -13.0°
Reaches altitude 10° 04:49:51 10° 30° (NNE) 1,672 ? -12.7°
Maximum altitude 04:53:11 35° 98° (E) 793 ? -12.1°
Drops below altitude 10° 04:56:28 10° 166° (SSE) 1,651 ? -11.6°
Sets 04:58:38 0° 175° (S) 2,522 ? -11.3°
